USA 186 - Orbit

View from above orbital plane
View from above orbital plane
View from above satellite
View from above satellite

Ground track
Ground track

The orbit data is extracted from the following two-line orbital elements,

1 28888U 05042A   13167.86681500 0.00022000  00000-0  21828-3 0    08
2 28888  97.9433 230.8406 0545725  87.0166 272.9833 14.74545834    09
Epoch (UTC): 16 June 2013 20:48:12
Eccentricity: 0.0545725
inclination: 97.9433°
perigee height: 263 km
apogee height: 1030 km
right ascension of ascending node: 230.8406°
argument of perigee: 87.0166°
revolutions per day: 14.74545834
mean anomaly at epoch: 272.9833°
orbit number at epoch: 0

The dashed part of the orbit path shows where the satellite is in the earth's shadow,  

Developed and maintained by Chris Peat, Heavens-Above GmbH. Please read the updated FAQ before sending e-mail. Imprint. DLR